ORBCOMM-X [-] 1 21576U 91050C 12136.86780269 .00000297 00000-0 10792-3 0 9096 2 21576 98.6176 101.5462 0004523 89.0784 271.0934 14.40342550 93645 ORBCOMM FM01 [-] 1 23545U 95017A 12137.22428737 .00002541 00000-0 50319-3 0 1108 2 23545 69.9679 129.9167 0008452 166.8429 193.2934 14.63438847909587 ORBCOMM FM02 [-] 1 23546U 95017B 12136.14978434 .00001509 00000-0 30700-3 0 1669 2 23546 69.9748 135.4984 0008859 149.2480 210.9199 14.63024431909420 ORBCOMM FM08 [+] 1 25112U 97084A 12136.28386355 .00001129 00000-0 43945-3 0 1052 2 25112 45.0188 26.3188 0010066 1.0069 359.0806 14.35289384752918 ORBCOMM FM10 [+] 1 25113U 97084B 12137.08409066 .00000768 00000-0 31462-3 0 8288 2 25113 45.0201 23.4480 0007103 342.9520 17.1092 14.35293238753020 ORBCOMM FM11 [+] 1 25114U 97084C 12136.72822055 .00000724 00000-0 29943-3 0 7693 2 25114 45.0195 24.6911 0007539 338.9423 21.1122 14.35288453752970 ORBCOMM FM12 [+] 1 25115U 97084D 12137.19829273 .00000897 00000-0 35918-3 0 7640 2 25115 45.0188 22.2182 0006776 346.4821 13.5839 14.35298200753045 ORBCOMM FM09 [+] 1 25116U 97084E 12136.30272318 .00000787 00000-0 32134-3 0 9338 2 25116 45.0206 26.8959 0006501 325.1372 34.9061 14.35283357752916 ORBCOMM FM05 [+] 1 25117U 97084F 12136.68451326 .00000807 00000-0 32828-3 0 8622 2 25117 45.0193 25.3200 0004086 4.0106 356.0778 14.35283469752961 ORBCOMM FM06 [+] 1 25118U 97084G 12137.09309992 .00000737 00000-0 30387-3 0 7472 2 25118 45.0192 23.2489 0003487 18.1978 341.9006 14.35298709753022 ORBCOMM FM07 [+] 1 25119U 97084H 12137.11011357 .00000920 00000-0 36743-3 0 267 2 25119 45.0196 23.3739 0004442 355.0548 5.0261 14.35268710753024 ORBCOMM FM03 [-] 1 25158U 98007B 12136.88914286 .00000632 00000-0 31208-3 0 7518 2 25158 107.9591 108.6963 0052563 254.3365 105.1974 14.26355464741129 ORBCOMM FM04 [+] 1 25159U 98007C 12136.67029722 .00000605 00000-0 30162-3 0 7527 2 25159 107.9582 108.0601 0048154 255.8848 103.6934 14.26395875741125 ORBCOMM FM17 [-] 1 25413U 98046A 12136.75277009 .00000666 00000-0 31997-3 0 8878 2 25413 44.9978 342.3976 0001232 209.0878 150.9905 14.28276181718694 ORBCOMM FM18 [+] 1 25414U 98046B 12136.76309464 .00000432 00000-0 22067-3 0 9141 2 25414 44.9983 336.1085 0003247 199.6029 160.4640 14.29767359718777 ORBCOMM FM19 [+] 1 25415U 98046C 12135.93363133 .00000807 00000-0 36531-3 0 9566 2 25415 44.9982 340.2018 0002649 178.0327 182.0519 14.29768115718659 ORBCOMM FM20 [+] 1 25416U 98046D 12136.01427936 .00000859 00000-0 38542-3 0 3823 2 25416 44.9986 340.0275 0002291 68.9663 291.1433 14.29764997718628 ORBCOMM FM16 [+] 1 25417U 98046E 12135.88494488 .00000842 00000-0 37906-3 0 9971 2 25417 45.0014 341.7918 0000861 229.5020 130.5734 14.29764274718648 ORBCOMM FM15 [+] 1 25418U 98046F 12137.01326527 .00000891 00000-0 39749-3 0 418 2 25418 45.0015 336.7732 0001848 226.6090 133.4604 14.29778515718808 ORBCOMM FM14 [+] 1 25419U 98046G 12136.95295217 .00000682 00000-0 31720-3 0 39 2 25419 45.0009 336.9551 0001311 161.8820 198.2065 14.29763747718798 ORBCOMM FM13 [+] 1 25420U 98046H 12135.70556919 .00000425 00000-0 21788-3 0 8948 2 25420 45.0017 343.2177 0002060 207.7718 152.3025 14.29754603718644 ORBCOMM FM21 [+] 1 25475U 98053A 12137.18055868 .00000781 00000-0 35433-3 0 8685 2 25475 45.0111 59.6711 0001127 174.9870 185.0983 14.29897501712036 ORBCOMM FM22 [+] 1 25476U 98053B 12136.16593026 .00000794 00000-0 35954-3 0 5382 2 25476 45.0105 64.7899 0001519 288.2534 71.8102 14.29895002711875 ORBCOMM FM23 [+] 1 25477U 98053C 12137.05768239 .00000500 00000-0 24616-3 0 8619 2 25477 45.0104 60.2835 0001176 260.3616 99.7058 14.29894017712175 ORBCOMM FM24 [+] 1 25478U 98053D 12135.93328941 .00000475 00000-0 23685-3 0 4484 2 25478 45.0112 65.9010 0001584 305.6108 54.4597 14.29845990711995 ORBCOMM FM25 [+] 1 25479U 98053E 12136.81292704 .00001046 00000-0 45632-3 0 7406 2 25479 45.0109 61.1622 0002975 253.8105 106.2422 14.29895397712119 ORBCOMM FM26 [-] 1 25480U 98053F 12136.88135396 .00000361 00000-0 19241-3 0 8023 2 25480 45.0106 49.7794 0005689 266.0344 93.9842 14.30012407712243 ORBCOMM FM27 [+] 1 25481U 98053G 12136.91037642 .00000404 00000-0 20996-3 0 3317 2 25481 45.0090 60.4628 0001958 336.0496 24.0248 14.29732481712124 ORBCOMM FM28 [-] 1 25482U 98053H 12137.20455190 .00000858 00000-0 37680-3 0 4506 2 25482 45.0129 23.3653 0003247 268.5862 91.4612 14.30883246712629 ORBCOMM FM30 [+] 1 25980U 99065A 12137.22022189 .00000534 00000-0 26040-3 0 3770 2 25980 45.0343 226.7744 0001371 26.8126 333.2808 14.29738956649497 ORBCOMM FM31 [+] 1 25981U 99065B 12135.66818287 .00000511 00000-0 25135-3 0 4713 2 25981 45.0254 230.9716 0001309 32.2347 327.8600 14.29737413649263 ORBCOMM FM32 [P] 1 25982U 99065C 12136.86285691 .00000161 00000-0 11576-3 0 4124 2 25982 45.0222 222.3357 0003836 35.7530 324.3582 14.29901103649477 ORBCOMM FM33 [+] 1 25983U 99065D 12136.24852404 .00000684 00000-0 30500-3 0 4600 2 25983 45.0331 225.4466 0009018 307.2290 52.7732 14.31927416649413 ORBCOMM FM36 [+] 1 25984U 99065E 12136.21343882 .00000857 00000-0 38503-3 0 4224 2 25984 45.0396 233.2808 0004589 257.7564 102.2764 14.29746824649340 ORBCOMM FM35 [+] 1 25985U 99065F 12136.82885538 .00000313 00000-0 17499-3 0 4500 2 25985 45.0425 231.4987 0000292 168.0896 191.9961 14.29747200649434 ORBCOMM FM34 [+] 1 25986U 99065G 12136.81563163 .00000311 00000-0 17418-3 0 3864 2 25986 45.0418 230.9665 0002070 313.6091 46.4585 14.29735264649438 ORBCOMM FM38 [-] 1 33060U 08031A 12137.06296393 .00000589 00000-0 13038-3 0 2012 2 33060 48.4434 141.7503 0007652 226.7818 133.2455 14.69734434209746 ORBCOMM FM41 [-] 1 33061U 08031B 12136.14973336 .00000483 00000-0 11292-3 0 2170 2 33061 48.4467 146.7422 0006269 215.1253 144.9251 14.69682372209618 ORBCOMM FM29 [-] 1 33062U 08031C 12137.12185148 .00000523 00000-0 12027-3 0 1920 2 33062 48.4437 144.9803 0008158 220.2188 139.8116 14.69370477209716 ORBCOMM FM39 [-] 1 33063U 08031D 12136.49636652 .00000545 00000-0 12467-3 0 2092 2 33063 48.4427 149.8580 0009857 210.0074 150.0274 14.69096350209591 ORBCOMM FM37 [-] 1 33064U 08031E 12136.85029274 .00000469 00000-0 11133-3 0 1913 2 33064 48.4436 145.5019 0007892 221.3724 138.6594 14.69370333209689 ORBCOMM FM40 [-] 1 33065U 08031F 12137.16546810 .00000496 00000-0 11630-3 0 1797 2 33065 48.4456 147.0231 0008974 220.4933 139.5259 14.69202728209690